UAL870 YSSY-KSFO

Flight info

Callsign UAL870
Flight time N/A
Altitude 33000
Route OLSEM1/34R OLSEM Y193 BNA DCT LAMSI DCT HARVS DCT 20S160E 18S163E/N0489F350 12S170E DCT ATRAS DCT 05S176W 02S170W/N0481F370 03N160W 10N155W/N0476F390 15N150W 21N140W 26N135W 31N130W/N0484F410 DCT MAFIC A220 CINNY PIRAT3
Aircraft B772/H-SDE2E3FGHIJ5LORVWXY/LB1D1

Departure

Time 2026-05-04 08:02
Airport Sydney Kingsford Smith International Airport (YSSY)

Arrival

Time N/A
Airport San Francisco International Airport (KSFO)
Time Latitude Longitude Altitude Speed Heading
2026-05-04 07:28 -33.93831 151.16837 29 ft 0 kts 70°
2026-05-04 07:45 -33.93832 151.16837 25 ft 1 kts 70°
2026-05-04 07:46 -33.93837 151.16819 27 ft 3 kts 75°
2026-05-04 07:46 -33.93841 151.16795 31 ft 3 kts 85°
2026-05-04 07:46 -33.93841 151.16771 31 ft 3 kts 98°
2026-05-04 07:46 -33.93836 151.16749 31 ft 3 kts 123°
2026-05-04 07:47 -33.93826 151.16735 31 ft 1 kts 158°
2026-05-04 07:47 -33.93823 151.16734 31 ft 0 kts 160°
2026-05-04 07:50 -33.93836 151.16739 31 ft 7 kts 161°
2026-05-04 07:51 -33.93884 151.16758 28 ft 7 kts 163°
2026-05-04 07:51 -33.93962 151.16782 28 ft 14 kts 164°
2026-05-04 07:51 -33.94058 151.16814 28 ft 14 kts 164°
2026-05-04 07:51 -33.94155 151.16843 26 ft 14 kts 167°
2026-05-04 07:52 -33.94252 151.16870 27 ft 14 kts 167°
2026-05-04 07:52 -33.94349 151.16898 27 ft 14 kts 166°
2026-05-04 07:52 -33.94406 151.16979 27 ft 14 kts 82°
2026-05-04 07:52 -33.94381 151.17094 29 ft 14 kts 74°
2026-05-04 07:53 -33.94354 151.17209 29 ft 14 kts 74°
2026-05-04 07:54 -33.95152 151.17538 26 ft 21 kts 166°
2026-05-04 07:55 -33.95297 151.17572 23 ft 24 kts 169°
2026-05-04 07:55 -33.95496 151.17620 27 ft 30 kts 168°
2026-05-04 07:55 -33.95698 151.17672 29 ft 30 kts 168°
2026-05-04 07:55 -33.95902 151.17726 27 ft 30 kts 168°
2026-05-04 07:56 -33.96101 151.17777 29 ft 30 kts 168°
2026-05-04 07:56 -33.96300 151.17829 26 ft 24 kts 168°
2026-05-04 07:56 -33.96433 151.17892 28 ft 9 kts 123°
2026-05-04 07:56 -33.96438 151.17921 28 ft 0 kts 94°
2026-05-04 08:00 -33.96428 151.17991 28 ft 15 kts 78°
2026-05-04 08:02 -33.92439 151.17093 810 ft 198 kts 351°
2026-05-04 08:02 -33.91140 151.16751 1795 ft 184 kts 345°
2026-05-04 08:02 -33.90028 151.15912 2013 ft 201 kts 310°
2026-05-04 08:03 -33.89184 151.14470 1885 ft 222 kts 309°
2026-05-04 08:03 -33.88201 151.12933 2003 ft 238 kts 311°
2026-05-04 08:03 -33.87132 151.11374 2436 ft 244 kts 313°
2026-05-04 08:03 -33.86015 151.09825 2991 ft 245 kts 314°
2026-05-04 08:04 -33.84885 151.08317 3670 ft 240 kts 314°
2026-05-04 08:04 -33.83592 151.07129 4110 ft 241 kts 339°
2026-05-04 08:04 -33.81943 151.06700 4547 ft 245 kts 351°
2026-05-04 08:04 -33.80249 151.06500 4956 ft 242 kts 352°
2026-05-04 08:05 -33.78557 151.06337 4957 ft 247 kts 352°
2026-05-04 08:05 -33.76839 151.06176 4966 ft 247 kts 352°
2026-05-04 08:05 -33.75124 151.06016 4964 ft 248 kts 353°
2026-05-04 08:05 -33.73405 151.05853 4961 ft 247 kts 352°
2026-05-04 08:06 -33.71693 151.05695 4967 ft 247 kts 353°
2026-05-04 08:06 -33.69985 151.05531 5018 ft 245 kts 355°
2026-05-04 08:06 -33.68294 151.05885 5303 ft 258 kts 25°
2026-05-04 08:06 -33.67018 151.07446 5736 ft 276 kts 59°
2026-05-04 08:08 -33.61350 151.22662 8804 ft 291 kts 57°
2026-05-04 08:08 -33.60404 151.24821 9249 ft 294 kts 57°
2026-05-04 08:10 -33.51719 151.44266 11154 ft 383 kts 58°
2026-05-04 08:11 -33.50449 151.47101 11623 ft 389 kts 58°
2026-05-04 08:11 -33.47862 151.52869 12737 ft 396 kts 58°
2026-05-04 08:11 -33.46552 151.55782 13320 ft 399 kts 58°
2026-05-04 08:12 -33.45230 151.58720 13868 ft 402 kts 57°
2026-05-04 08:12 -33.43897 151.61676 14361 ft 405 kts 57°
2026-05-04 08:12 -33.42556 151.64651 14859 ft 407 kts 58°
2026-05-04 08:12 -33.41207 151.67641 15380 ft 409 kts 58°
2026-05-04 08:13 -33.39848 151.70645 15863 ft 412 kts 58°
2026-05-04 08:13 -33.38427 151.73613 16240 ft 410 kts 50°
2026-05-04 08:13 -33.36453 151.76043 16522 ft 407 kts 31°
2026-05-04 08:13 -33.33985 151.77632 16993 ft 401 kts 16°
2026-05-04 08:14 -33.31318 151.78561 17330 ft 401 kts 11°
2026-05-04 08:14 -33.28630 151.79399 17681 ft 406 kts 11°
2026-05-04 08:14 -33.25887 151.80243 18171 ft 408 kts 11°
2026-05-04 08:16 -33.06326 151.86440 20841 ft 425 kts 11°
2026-05-04 08:16 -33.03483 151.87353 21219 ft 426 kts 11°
2026-05-04 08:16 -33.00597 151.88280 21582 ft 428 kts 11°
2026-05-04 08:17 -32.98693 151.88891 21818 ft 430 kts 10°
2026-05-04 08:17 -32.95797 151.89819 22168 ft 432 kts 10°
2026-05-04 08:17 -32.92884 151.90752 22517 ft 435 kts 10°
2026-05-04 08:17 -32.89957 151.91689 22874 ft 437 kts 10°
2026-05-04 08:19 -32.69155 151.98330 25054 ft 448 kts
2026-05-04 08:19 -32.66140 151.99290 25328 ft 449 kts
2026-05-04 08:20 -32.63115 152.00253 25602 ft 451 kts
2026-05-04 08:20 -32.60080 152.01219 25863 ft 452 kts
2026-05-04 08:20 -32.57036 152.02186 26117 ft 454 kts
2026-05-04 08:20 -32.53979 152.03154 26370 ft 455 kts
2026-05-04 08:21 -32.50918 152.04125 26585 ft 457 kts
2026-05-04 08:21 -32.47845 152.05098 26820 ft 458 kts
2026-05-04 08:21 -32.44759 152.06075 27022 ft 460 kts
2026-05-04 08:21 -32.41662 152.07054 27205 ft 462 kts
2026-05-04 08:22 -32.38554 152.08038 27440 ft 463 kts
2026-05-04 08:22 -32.35440 152.09024 27680 ft 464 kts
2026-05-04 08:24 -32.13417 152.15965 28899 ft 474 kts
2026-05-04 08:24 -32.10221 152.16968 29059 ft 475 kts
2026-05-04 08:24 -32.07023 152.17972 29247 ft 476 kts
2026-05-04 08:24 -32.03828 152.18975 29466 ft 475 kts
2026-05-04 08:25 -32.00642 152.19978 29691 ft 474 kts
2026-05-04 08:25 -31.97471 152.20976 30005 ft 471 kts
2026-05-04 08:25 -31.94302 152.21968 30169 ft 471 kts
2026-05-04 08:25 -31.91143 152.22956 30361 ft 469 kts
2026-05-04 08:26 -31.87985 152.23944 30463 ft 471 kts
2026-05-04 08:27 -31.65855 152.30842 31492 ft 470 kts
2026-05-04 08:28 -31.62697 152.31825 31633 ft 470 kts
2026-05-04 08:28 -31.59542 152.32811 31804 ft 469 kts
2026-05-04 08:28 -31.56390 152.33790 31941 ft 468 kts
2026-05-04 08:28 -31.53235 152.34764 32010 ft 470 kts
2026-05-04 08:29 -31.46899 152.36720 32081 ft 472 kts
2026-05-04 08:31 -31.21485 152.44570 32093 ft 472 kts
2026-05-04 08:33 -30.95999 152.52404 32103 ft 478 kts
2026-05-04 08:35 -30.73640 152.60455 32090 ft 491 kts 14°
2026-05-04 08:35 -30.70522 152.62089 32101 ft 492 kts 14°
2026-05-04 08:35 -30.64279 152.65345 32092 ft 492 kts 14°
2026-05-04 08:37 -30.42419 152.76529 32118 ft 492 kts 14°
2026-05-04 08:38 -30.36186 152.79707 32120 ft 494 kts 14°
2026-05-04 08:38 -30.29896 152.82907 32110 ft 493 kts 14°
2026-05-04 08:40 -30.04758 152.95649 32126 ft 493 kts 14°
2026-05-04 08:41 -29.98473 152.98825 32122 ft 494 kts 14°
2026-05-04 08:41 -29.92256 153.01961 32101 ft 494 kts 14°
2026-05-04 08:42 -29.85960 153.05133 32114 ft 494 kts 14°
2026-05-04 08:42 -29.79658 153.08303 32114 ft 494 kts 14°
2026-05-04 08:43 -29.73351 153.11471 32114 ft 494 kts 14°
2026-05-04 08:43 -29.67045 153.14635 32112 ft 495 kts 14°
2026-05-04 08:44 -29.60734 153.17798 32115 ft 495 kts 14°
2026-05-04 08:46 -29.35416 153.30438 32115 ft 497 kts 14°
2026-05-04 08:46 -29.29113 153.33574 32114 ft 497 kts 14°
2026-05-04 08:47 -29.22727 153.36748 32102 ft 497 kts 14°
2026-05-04 08:47 -29.16425 153.39875 32114 ft 497 kts 14°
2026-05-04 08:48 -29.10080 153.43020 32117 ft 497 kts 14°
2026-05-04 08:48 -29.03727 153.46164 32112 ft 498 kts 14°
2026-05-04 08:49 -28.97378 153.49304 32112 ft 498 kts 14°
2026-05-04 08:50 -28.79590 153.61934 32118 ft 537 kts 47°
2026-05-04 08:50 -28.77440 153.65427 32106 ft 540 kts 49°
2026-05-04 08:51 -28.73221 153.72519 32122 ft 541 kts 49°
2026-05-04 08:51 -28.68936 153.79576 32112 ft 542 kts 48°
2026-05-04 08:52 -28.64586 153.86585 32119 ft 542 kts 48°
2026-05-04 08:52 -28.60222 153.93580 32117 ft 542 kts 48°
2026-05-04 08:54 -28.42034 154.20437 32121 ft 525 kts 32°
2026-05-04 08:55 -28.36162 154.25159 32095 ft 513 kts 23°
2026-05-04 08:55 -28.30074 154.29367 32111 ft 512 kts 23°
2026-05-04 09:01 -27.66090 154.74142 32091 ft 516 kts 24°
2026-05-04 09:01 -27.59977 154.78394 32091 ft 516 kts 24°
2026-05-04 09:02 -27.53860 154.82643 32101 ft 516 kts 24°
2026-05-04 09:02 -27.47739 154.86889 32104 ft 517 kts 24°
2026-05-04 09:03 -27.41618 154.91130 32083 ft 517 kts 24°
2026-05-04 09:03 -27.35496 154.95366 32096 ft 517 kts 24°
2026-05-04 09:04 -27.29412 154.99569 32080 ft 517 kts 24°
2026-05-04 09:04 -27.23363 155.03743 32099 ft 517 kts 24°
2026-05-04 09:05 -27.17227 155.07971 32081 ft 517 kts 24°
2026-05-04 09:05 -27.11092 155.12194 32088 ft 517 kts 24°
2026-05-04 09:06 -27.05945 155.15732 32086 ft 518 kts 24°
2026-05-04 09:08 -26.81405 155.32549 32082 ft 518 kts 25°
2026-05-04 09:08 -26.75253 155.36751 32078 ft 518 kts 25°
2026-05-04 09:09 -26.69101 155.40947 32057 ft 518 kts 25°
2026-05-04 09:09 -26.62950 155.45139 32076 ft 518 kts 25°
2026-05-04 09:10 -26.56798 155.49325 32076 ft 518 kts 25°
2026-05-04 09:10 -26.50641 155.53509 32074 ft 518 kts 25°
2026-05-04 09:11 -26.44486 155.57686 32059 ft 518 kts 25°
2026-05-04 09:11 -26.38330 155.61859 32070 ft 518 kts 25°
2026-05-04 09:12 -26.32173 155.66028 32069 ft 518 kts 25°
2026-05-04 09:14 -26.07513 155.82671 32064 ft 518 kts 25°
2026-05-04 09:14 -26.01338 155.86826 32060 ft 519 kts 25°
2026-05-04 09:15 -25.95168 155.90972 32048 ft 519 kts 25°
2026-05-04 09:15 -25.89033 155.95090 32049 ft 519 kts 25°
2026-05-04 09:17 -25.61436 156.14036 32052 ft 522 kts 27°
2026-05-04 09:18 -25.55384 156.18482 32049 ft 522 kts 27°
2026-05-04 09:18 -25.49315 156.22894 32051 ft 522 kts 27°
2026-05-04 09:19 -25.43239 156.27278 32036 ft 521 kts 27°
2026-05-04 09:19 -25.37160 156.31654 32047 ft 521 kts 27°
2026-05-04 09:20 -25.31081 156.36026 32047 ft 521 kts 27°
2026-05-04 09:20 -25.25003 156.40394 32041 ft 521 kts 27°
2026-05-04 09:21 -25.18923 156.44759 32030 ft 521 kts 27°
2026-05-04 09:21 -25.12848 156.49116 32041 ft 521 kts 27°
2026-05-04 09:22 -25.06774 156.53466 32041 ft 521 kts 27°
2026-05-04 09:22 -25.00697 156.57813 32039 ft 520 kts 27°
2026-05-04 09:23 -24.94627 156.62150 32042 ft 520 kts 27°
2026-05-04 09:23 -24.88548 156.66488 32038 ft 520 kts 27°
2026-05-04 09:25 -24.64270 156.83762 32032 ft 520 kts 28°
2026-05-04 09:26 -24.58191 156.88075 32034 ft 520 kts 28°
2026-05-04 09:26 -24.52107 156.92386 32032 ft 520 kts 28°
2026-05-04 09:27 -24.46024 156.96691 32035 ft 520 kts 28°
2026-05-04 09:27 -24.40016 157.00938 32021 ft 520 kts 28°
2026-05-04 09:28 -24.33933 157.05234 32023 ft 520 kts 28°
2026-05-04 09:28 -24.27848 157.09526 32029 ft 520 kts 28°
2026-05-04 09:29 -24.21761 157.13814 32029 ft 520 kts 28°
2026-05-04 09:29 -24.15675 157.18096 32013 ft 520 kts 28°
2026-05-04 09:30 -24.09589 157.22374 32019 ft 520 kts 28°
2026-05-04 09:30 -24.03502 157.26648 32023 ft 520 kts 28°
2026-05-04 09:31 -23.97421 157.30912 32027 ft 520 kts 28°
2026-05-04 09:31 -23.91331 157.35178 32021 ft 520 kts 28°
2026-05-04 09:32 -23.85241 157.39439 32015 ft 520 kts 28°
2026-05-04 09:34 -23.60892 157.56427 32005 ft 519 kts 28°
2026-05-04 09:34 -23.54807 157.60661 32010 ft 519 kts 28°
2026-05-04 09:35 -23.48726 157.64887 32012 ft 518 kts 28°
2026-05-04 09:35 -23.42643 157.69110 32014 ft 518 kts 28°
2026-05-04 09:37 -23.18322 157.85947 32011 ft 518 kts 28°
2026-05-04 09:38 -23.12244 157.90144 32010 ft 518 kts 28°
2026-05-04 09:38 -23.06164 157.94337 32010 ft 518 kts 28°
2026-05-04 09:39 -23.00120 157.98500 32007 ft 518 kts 28°
2026-05-04 09:39 -22.94117 158.02632 32005 ft 518 kts 28°
2026-05-04 09:40 -22.88030 158.06815 32005 ft 518 kts 28°
2026-05-04 09:40 -22.81941 158.10997 32005 ft 518 kts 28°
2026-05-04 09:42 -22.57591 158.27673 32001 ft 518 kts 28°
2026-05-04 09:43 -22.51495 158.31837 31996 ft 518 kts 29°
2026-05-04 09:43 -22.45407 158.35991 32005 ft 518 kts 28°
2026-05-04 09:44 -22.39315 158.40143 32016 ft 517 kts 28°
2026-05-04 09:46 -22.14953 158.56705 32000 ft 517 kts 29°
2026-05-04 09:46 -22.08860 158.60836 32003 ft 517 kts 29°
2026-05-04 09:47 -22.02769 158.64962 32004 ft 517 kts 29°
2026-05-04 09:49 -21.78446 158.81395 32002 ft 517 kts 29°
2026-05-04 09:51 -21.57121 158.95748 31997 ft 516 kts 29°
2026-05-04 09:51 -21.51030 158.99838 31997 ft 516 kts 29°
2026-05-04 09:52 -21.45010 159.03877 31999 ft 516 kts 29°
2026-05-04 09:52 -21.38921 159.07958 31990 ft 516 kts 29°
2026-05-04 09:53 -21.33863 159.11344 31998 ft 515 kts 29°
2026-05-04 09:53 -21.27778 159.15415 31999 ft 515 kts 29°
2026-05-04 09:54 -21.21698 159.19479 32002 ft 515 kts 29°
2026-05-04 09:54 -21.15619 159.23537 31999 ft 515 kts 29°
2026-05-04 09:55 -21.09537 159.27594 31991 ft 515 kts 29°
2026-05-04 09:55 -21.03460 159.31643 31997 ft 514 kts 29°
2026-05-04 09:56 -20.97391 159.35684 31996 ft 514 kts 29°
2026-05-04 09:56 -20.91316 159.39724 31997 ft 514 kts 29°
2026-05-04 09:57 -20.85240 159.43761 32000 ft 514 kts 29°
2026-05-04 09:57 -20.79165 159.47793 31997 ft 514 kts 29°
2026-05-04 09:58 -20.73090 159.51822 31990 ft 514 kts 29°
2026-05-04 09:58 -20.67055 159.55820 31996 ft 514 kts 29°
2026-05-04 10:00 -20.42734 159.71895 31998 ft 514 kts 29°
2026-05-04 10:04 -20.00550 160.00397 31990 ft 517 kts 42°
2026-05-04 10:04 -19.95820 160.06147 31989 ft 519 kts 54°
2026-05-04 10:05 -19.91748 160.12482 31992 ft 519 kts 55°
2026-05-04 10:05 -19.87693 160.18832 31995 ft 519 kts 54°
2026-05-04 10:06 -19.83601 160.25154 31997 ft 519 kts 54°
2026-05-04 10:06 -19.79510 160.31416 31994 ft 520 kts 54°
2026-05-04 10:08 -19.65058 160.53462 31995 ft 520 kts 54°
2026-05-04 10:08 -19.60926 160.59756 31991 ft 520 kts 54°
2026-05-04 10:09 -19.56790 160.66047 31990 ft 520 kts 54°
2026-05-04 10:09 -19.52653 160.72336 31989 ft 520 kts 54°
2026-05-04 10:10 -19.48511 160.78623 31989 ft 520 kts 54°
2026-05-04 10:10 -19.44367 160.84909 31989 ft 520 kts 54°
2026-05-04 10:11 -19.40222 160.91188 31990 ft 520 kts 54°
2026-05-04 10:11 -19.36072 160.97469 31993 ft 520 kts 54°
2026-05-04 10:12 -19.31966 161.03677 31991 ft 520 kts 54°
2026-05-04 10:12 -19.27811 161.09953 31989 ft 521 kts 54°
2026-05-04 10:13 -19.23653 161.16226 31989 ft 521 kts 54°
2026-05-04 10:13 -19.19495 161.22495 31989 ft 521 kts 54°
2026-05-04 10:14 -19.15326 161.28771 31982 ft 521 kts 54°
2026-05-04 10:16 -18.98639 161.53835 31984 ft 521 kts 54°
2026-05-04 10:16 -18.94458 161.60098 31979 ft 522 kts 54°
2026-05-04 10:17 -18.90271 161.66366 31982 ft 522 kts 54°
2026-05-04 10:19 -18.73490 161.91419 31978 ft 523 kts 54°
2026-05-04 10:19 -18.69287 161.97678 31978 ft 523 kts 54°
2026-05-04 10:20 -18.65137 162.03853 31978 ft 523 kts 54°
2026-05-04 10:20 -18.60932 162.10103 31978 ft 523 kts 54°
2026-05-04 10:21 -18.56753 162.16309 31973 ft 522 kts 54°
2026-05-04 10:21 -18.52548 162.22547 31972 ft 522 kts 54°
2026-05-04 10:22 -18.46238 162.31895 31971 ft 522 kts 54°
2026-05-04 10:23 -18.42029 162.38124 31974 ft 522 kts 54°
2026-05-04 10:25 -18.25156 162.63033 31968 ft 523 kts 55°
2026-05-04 10:25 -18.20930 162.69257 31967 ft 523 kts 55°
2026-05-04 10:26 -18.16700 162.75481 31967 ft 523 kts 55°
2026-05-04 10:26 -18.12466 162.81704 31967 ft 523 kts 55°
2026-05-04 10:27 -18.08230 162.87926 31968 ft 524 kts 55°
2026-05-04 10:27 -18.03988 162.94152 31964 ft 524 kts 55°
2026-05-04 10:28 -17.99781 163.00276 31960 ft 524 kts 53°
2026-05-04 10:28 -17.95094 163.06137 31972 ft 524 kts 50°
2026-05-04 10:29 -17.90307 163.11914 31964 ft 525 kts 49°
2026-05-04 10:29 -17.85529 163.17701 31965 ft 525 kts 50°
2026-05-04 10:30 -17.80761 163.23514 31963 ft 525 kts 50°
2026-05-04 10:30 -17.76002 163.29327 31966 ft 525 kts 50°
2026-05-04 10:31 -17.71238 163.35141 31963 ft 526 kts 50°
2026-05-04 10:32 -17.54524 163.55484 31958 ft 526 kts 50°
2026-05-04 10:33 -17.49741 163.61292 31959 ft 526 kts 50°
2026-05-04 10:33 -17.44957 163.67098 31963 ft 526 kts 50°
2026-05-04 10:34 -17.40169 163.72903 31958 ft 527 kts 50°
2026-05-04 10:34 -17.35382 163.78702 31959 ft 527 kts 50°
2026-05-04 10:35 -17.30588 163.84504 31956 ft 527 kts 50°
2026-05-04 10:35 -17.25794 163.90301 31956 ft 527 kts 50°
2026-05-04 10:36 -17.21030 163.96057 31953 ft 527 kts 50°
2026-05-04 10:36 -17.16287 164.01783 31959 ft 527 kts 50°
2026-05-04 10:37 -17.11486 164.07575 31953 ft 527 kts 50°
2026-05-04 10:37 -17.06684 164.13362 31954 ft 527 kts 50°
2026-05-04 10:39 -16.89883 164.33570 31951 ft 526 kts 50°
2026-05-04 10:40 -16.85859 164.38402 31952 ft 526 kts 50°
2026-05-04 10:40 -16.81052 164.44168 31947 ft 526 kts 50°
2026-05-04 10:41 -16.76249 164.49926 31948 ft 526 kts 50°
2026-05-04 10:41 -16.71446 164.55678 31948 ft 526 kts 50°
2026-05-04 10:42 -16.66642 164.61427 31947 ft 525 kts 50°
2026-05-04 10:42 -16.61872 164.67130 31946 ft 525 kts 50°
2026-05-04 10:43 -16.57068 164.72869 31949 ft 525 kts 50°
2026-05-04 10:45 -16.37845 164.95789 31942 ft 524 kts 50°
2026-05-04 10:45 -16.33108 165.01425 31942 ft 524 kts 50°
2026-05-04 10:46 -16.28305 165.07135 31938 ft 524 kts 50°
2026-05-04 10:46 -16.23501 165.12841 31936 ft 524 kts 50°
2026-05-04 10:47 -16.18697 165.18543 31939 ft 524 kts 50°
2026-05-04 10:47 -16.13891 165.24244 31941 ft 524 kts 50°
2026-05-04 10:49 -15.94705 165.46953 31939 ft 523 kts 50°
2026-05-04 10:50 -15.89902 165.52626 31937 ft 523 kts 50°
2026-05-04 10:52 -15.70672 165.75298 31936 ft 522 kts 50°
2026-05-04 10:52 -15.65899 165.80915 31938 ft 522 kts 50°
2026-05-04 10:54 -15.46732 166.03426 31930 ft 522 kts 50°
2026-05-04 10:56 -15.27518 166.25922 31932 ft 521 kts 50°
2026-05-04 10:57 -15.22714 166.31537 31931 ft 521 kts 50°
2026-05-04 10:57 -15.17912 166.37145 31937 ft 520 kts 50°
2026-05-04 10:58 -15.13114 166.42744 31937 ft 520 kts 50°
2026-05-04 10:58 -15.08312 166.48343 31937 ft 520 kts 50°
2026-05-04 10:59 -15.03513 166.53935 31943 ft 520 kts 50°
2026-05-04 10:59 -14.98716 166.59521 31939 ft 520 kts 50°
2026-05-04 11:00 -14.93912 166.65111 31946 ft 520 kts 50°
2026-05-04 11:02 -14.74705 166.87418 31943 ft 520 kts 50°
2026-05-04 11:05 -14.38659 167.29109 31926 ft 520 kts 50°
2026-05-04 11:06 -14.33842 167.34665 31926 ft 520 kts 49°
2026-05-04 11:06 -14.29022 167.40219 31926 ft 520 kts 49°
2026-05-04 11:10 -13.95279 167.78996 31923 ft 520 kts 49°
2026-05-04 11:12 -13.75998 168.01071 31921 ft 520 kts 49°
2026-05-04 11:12 -13.71162 168.06598 31920 ft 520 kts 49°
2026-05-04 11:13 -13.66326 168.12122 31920 ft 520 kts 49°
2026-05-04 11:13 -13.61490 168.17642 31918 ft 519 kts 49°
2026-05-04 11:14 -13.56656 168.23157 31909 ft 519 kts 49°
2026-05-04 11:16 -13.37328 168.45169 31912 ft 518 kts 49°
2026-05-04 11:16 -13.32496 168.50662 31913 ft 518 kts 49°
2026-05-04 11:17 -13.27664 168.56154 31914 ft 518 kts 49°
2026-05-04 11:19 -13.08335 168.78082 31913 ft 517 kts 48°
2026-05-04 11:19 -13.03504 168.83554 31911 ft 517 kts 48°
2026-05-04 11:20 -12.98677 168.89018 31912 ft 517 kts 48°
2026-05-04 11:20 -12.93846 168.94483 31911 ft 517 kts 48°
2026-05-04 11:22 -12.74595 169.16226 31913 ft 517 kts 48°
2026-05-04 11:23 -12.69756 169.21685 31910 ft 517 kts 48°
2026-05-04 11:25 -12.52809 169.40771 31904 ft 518 kts 47°
2026-05-04 11:25 -12.47960 169.46224 31913 ft 518 kts 47°
2026-05-04 11:27 -12.26892 169.69883 31904 ft 520 kts 47°
2026-05-04 11:28 -12.22018 169.75348 31902 ft 520 kts 47°
2026-05-04 11:28 -12.17142 169.80812 31897 ft 520 kts 47°
2026-05-04 11:29 -12.12264 169.86275 31903 ft 520 kts 47°
2026-05-04 11:29 -12.07382 169.91739 31898 ft 520 kts 47°
2026-05-04 11:33 -11.73524 170.30116 31898 ft 520 kts 47°
2026-05-04 11:33 -11.68688 170.35608 31893 ft 520 kts 47°
2026-05-04 11:34 -11.63851 170.41100 31893 ft 520 kts 47°
2026-05-04 11:34 -11.59011 170.46590 31893 ft 520 kts 47°
2026-05-04 11:35 -11.54206 170.52039 31891 ft 520 kts 47°
2026-05-04 11:35 -11.49365 170.57524 31887 ft 521 kts 47°
2026-05-04 11:36 -11.44520 170.63012 31893 ft 521 kts 47°
2026-05-04 11:36 -11.39669 170.68503 31890 ft 521 kts 47°
2026-05-04 11:37 -11.34816 170.73994 31894 ft 522 kts 47°
2026-05-04 11:37 -11.29959 170.79486 31888 ft 522 kts 47°
2026-05-04 11:38 -11.25098 170.84979 31888 ft 522 kts 47°
2026-05-04 11:38 -11.20236 170.90471 31888 ft 522 kts 47°
2026-05-04 11:39 -11.15371 170.95963 31884 ft 522 kts 47°
2026-05-04 11:41 -10.98393 171.15107 31886 ft 523 kts 47°
2026-05-04 11:41 -10.93520 171.20594 31886 ft 523 kts 47°
2026-05-04 11:42 -10.88677 171.26046 31885 ft 523 kts 47°
2026-05-04 11:42 -10.83801 171.31531 31884 ft 523 kts 47°
2026-05-04 11:43 -10.78925 171.37013 31885 ft 523 kts 47°
2026-05-04 11:43 -10.74048 171.42495 31884 ft 523 kts 47°
2026-05-04 11:44 -10.69170 171.47973 31888 ft 522 kts 47°
2026-05-04 11:44 -10.64293 171.53449 31888 ft 522 kts 47°
2026-05-04 11:45 -10.59412 171.58926 31888 ft 522 kts 47°
2026-05-04 11:45 -10.54534 171.64397 31889 ft 522 kts 47°
2026-05-04 11:46 -10.49655 171.69866 31891 ft 522 kts 47°
2026-05-04 11:46 -10.44773 171.75336 31886 ft 522 kts 46°
2026-05-04 11:47 -10.39892 171.80801 31890 ft 522 kts 46°
2026-05-04 11:47 -10.35013 171.86262 31890 ft 522 kts 46°
2026-05-04 11:48 -10.30129 171.91725 31891 ft 522 kts 46°
2026-05-04 11:48 -10.25247 171.97185 31894 ft 522 kts 46°
2026-05-04 11:49 -10.20457 172.02538 31893 ft 522 kts 46°
2026-05-04 11:49 -10.15573 172.07994 31894 ft 522 kts 46°
2026-05-04 11:50 -10.10683 172.13453 31888 ft 523 kts 46°
2026-05-04 11:50 -10.05797 172.18906 31895 ft 522 kts 46°
2026-05-04 11:51 -10.00912 172.24356 31893 ft 522 kts 46°
2026-05-04 11:51 -9.96033 172.29796 31894 ft 521 kts 46°
2026-05-04 11:52 -9.91154 172.35235 31893 ft 521 kts 46°
2026-05-04 11:52 -9.86275 172.40671 31897 ft 521 kts 46°
2026-05-04 11:53 -9.81848 172.46481 31888 ft 522 kts 58°
2026-05-04 11:53 -9.78513 172.53008 31889 ft 522 kts 68°
2026-05-04 11:55 -9.67744 172.80355 31890 ft 522 kts 68°
2026-05-04 11:56 -9.65016 172.87172 31894 ft 522 kts 68°
2026-05-04 11:56 -9.62287 172.93992 31893 ft 522 kts 68°
2026-05-04 11:57 -9.59593 173.00727 31886 ft 522 kts 68°
2026-05-04 11:57 -9.56864 173.07546 31884 ft 522 kts 68°
2026-05-04 11:58 -9.54135 173.14359 31885 ft 522 kts 68°
2026-05-04 11:58 -9.51406 173.21170 31884 ft 522 kts 68°
2026-05-04 11:59 -9.48671 173.27990 31885 ft 522 kts 68°
2026-05-04 11:59 -9.45937 173.34803 31885 ft 522 kts 68°
2026-05-04 12:00 -9.43202 173.41615 31884 ft 522 kts 68°
2026-05-04 12:00 -9.40465 173.48428 31888 ft 522 kts 68°
2026-05-04 12:01 -9.37730 173.55231 31891 ft 521 kts 67°
2026-05-04 12:02 -9.28176 173.78960 31885 ft 520 kts 67°
2026-05-04 12:03 -9.25444 173.85736 31884 ft 520 kts 67°
2026-05-04 12:03 -9.22708 173.92519 31887 ft 520 kts 67°
2026-05-04 12:04 -9.19973 173.99294 31885 ft 520 kts 67°
2026-05-04 12:04 -9.17304 174.05901 31885 ft 520 kts 67°
2026-05-04 12:05 -9.14564 174.12680 31882 ft 520 kts 67°
2026-05-04 12:05 -9.11824 174.19457 31882 ft 521 kts 67°
2026-05-04 12:06 -9.09079 174.26241 31883 ft 521 kts 67°
2026-05-04 12:06 -9.06333 174.33023 31881 ft 521 kts 67°
2026-05-04 12:07 -9.03585 174.39805 31882 ft 521 kts 67°
2026-05-04 12:07 -9.00833 174.46593 31883 ft 521 kts 66°
2026-05-04 12:08 -8.98086 174.53366 31883 ft 522 kts 66°
2026-05-04 12:08 -8.95331 174.60154 31883 ft 522 kts 66°
2026-05-04 12:09 -8.92574 174.66942 31880 ft 522 kts 66°
2026-05-04 12:09 -8.89815 174.73731 31882 ft 522 kts 66°
2026-05-04 12:10 -8.87055 174.80519 31882 ft 522 kts 66°
2026-05-04 12:10 -8.84291 174.87311 31883 ft 522 kts 66°
2026-05-04 12:11 -8.81526 174.94104 31880 ft 522 kts 66°
2026-05-04 12:11 -8.78787 175.00827 31879 ft 523 kts 66°
2026-05-04 12:12 -8.76019 175.07621 31882 ft 523 kts 66°
2026-05-04 12:12 -8.73250 175.14410 31882 ft 523 kts 66°
2026-05-04 12:14 -8.62641 175.40388 31880 ft 521 kts 66°
2026-05-04 12:15 -8.59877 175.47146 31880 ft 520 kts 66°
2026-05-04 12:15 -8.57119 175.53886 31881 ft 519 kts 66°
2026-05-04 12:16 -8.54365 175.60614 31882 ft 518 kts 66°
2026-05-04 12:16 -8.51608 175.67344 31885 ft 518 kts 66°
2026-05-04 12:17 -8.48853 175.74065 31878 ft 518 kts 66°
2026-05-04 12:17 -8.46097 175.80783 31881 ft 518 kts 66°
2026-05-04 12:18 -8.43343 175.87495 31883 ft 517 kts 66°
2026-05-04 12:18 -8.40591 175.94199 31879 ft 516 kts 66°
2026-05-04 12:19 -8.37873 176.00814 31880 ft 516 kts 66°
2026-05-04 12:19 -8.35124 176.07504 31877 ft 516 kts 66°
2026-05-04 12:20 -8.32374 176.14189 31878 ft 515 kts 66°
2026-05-04 12:20 -8.29628 176.20864 31882 ft 514 kts 66°
2026-05-04 12:21 -8.26883 176.27531 31880 ft 514 kts 66°
2026-05-04 12:21 -8.24160 176.34142 31880 ft 513 kts 66°
2026-05-04 12:22 -8.21419 176.40792 31882 ft 513 kts 66°
2026-05-04 12:22 -8.18678 176.47438 31881 ft 513 kts 66°
2026-05-04 12:23 -8.15937 176.54083 31882 ft 513 kts 66°
2026-05-04 12:23 -8.13196 176.60723 31878 ft 513 kts 66°
2026-05-04 12:24 -8.10450 176.67371 31880 ft 513 kts 66°
2026-05-04 12:24 -8.07703 176.74018 31881 ft 513 kts 66°
2026-05-04 12:25 -8.04955 176.80664 31877 ft 513 kts 66°
2026-05-04 12:25 -8.02206 176.87309 31881 ft 513 kts 66°
2026-05-04 12:26 -7.99460 176.93944 31880 ft 513 kts 66°
2026-05-04 12:26 -7.96740 177.00512 31883 ft 514 kts 66°
2026-05-04 12:27 -7.93987 177.07159 31879 ft 513 kts 66°
2026-05-04 12:27 -7.91236 177.13793 31883 ft 512 kts 66°
2026-05-04 12:28 -7.88487 177.20422 31881 ft 512 kts 66°
2026-05-04 12:28 -7.85740 177.27043 31879 ft 511 kts 66°
2026-05-04 12:29 -7.82995 177.33654 31882 ft 511 kts 66°
2026-05-04 12:29 -7.80250 177.40263 31877 ft 511 kts 66°
2026-05-04 12:30 -7.77505 177.46868 31879 ft 511 kts 66°
2026-05-04 12:30 -7.74760 177.53469 31882 ft 511 kts 66°
2026-05-04 12:31 -7.72014 177.60070 31884 ft 511 kts 66°
2026-05-04 12:31 -7.69266 177.66673 31880 ft 511 kts 66°
2026-05-04 12:32 -7.65142 177.76575 31884 ft 511 kts 66°
2026-05-04 12:33 -7.62391 177.83176 31880 ft 511 kts 66°
2026-05-04 12:33 -7.59640 177.89773 31883 ft 510 kts 66°
2026-05-04 12:34 -7.56910 177.96320 31880 ft 510 kts 66°
2026-05-04 12:34 -7.54197 178.02819 31882 ft 509 kts 66°
2026-05-04 12:35 -7.51455 178.09388 31882 ft 508 kts 65°
2026-05-04 12:35 -7.48714 178.15947 31884 ft 507 kts 65°
2026-05-04 12:36 -7.45977 178.22497 31882 ft 507 kts 66°
2026-05-04 12:36 -7.43239 178.29045 31883 ft 507 kts 66°
2026-05-04 12:37 -7.40501 178.35591 31884 ft 507 kts 65°
2026-05-04 12:37 -7.37761 178.42137 31882 ft 507 kts 65°
2026-05-04 12:38 -7.35019 178.48684 31888 ft 507 kts 65°
2026-05-04 12:38 -7.32275 178.55234 31884 ft 508 kts 65°
2026-05-04 12:39 -7.29529 178.61785 31884 ft 508 kts 65°
2026-05-04 12:39 -7.26779 178.68343 31886 ft 508 kts 65°
2026-05-04 12:40 -7.24029 178.74899 31883 ft 508 kts 65°
2026-05-04 12:40 -7.21275 178.81460 31885 ft 509 kts 65°
2026-05-04 12:41 -7.18540 178.87975 31888 ft 509 kts 65°
2026-05-04 12:41 -7.15782 178.94538 31885 ft 509 kts 65°
2026-05-04 12:42 -7.13059 179.01018 31881 ft 509 kts 65°
2026-05-04 12:42 -7.10299 179.07581 31884 ft 509 kts 65°
2026-05-04 12:43 -7.07541 179.14139 31883 ft 509 kts 65°
2026-05-04 12:43 -7.04780 179.20698 31882 ft 509 kts 65°
2026-05-04 12:44 -7.02019 179.27256 31883 ft 509 kts 65°
2026-05-04 12:44 -6.99263 179.33798 31883 ft 509 kts 65°
2026-05-04 12:45 -6.96499 179.40356 31882 ft 509 kts 65°
2026-05-04 12:45 -6.93736 179.46909 31882 ft 509 kts 65°
2026-05-04 12:46 -6.90972 179.53464 31884 ft 509 kts 65°
2026-05-04 12:46 -6.88206 179.60017 31882 ft 509 kts 65°
2026-05-04 12:47 -6.85439 179.66572 31885 ft 509 kts 65°
2026-05-04 12:47 -6.82673 179.73121 31884 ft 508 kts 65°
2026-05-04 12:48 -6.79925 179.79625 31883 ft 508 kts 65°
2026-05-04 12:48 -6.77160 179.86165 31885 ft 508 kts 65°
2026-05-04 12:49 -6.74395 179.92704 31884 ft 508 kts 65°
2026-05-04 12:49 -6.71629 179.99240 31882 ft 508 kts 65°
2026-05-04 12:50 -6.68937 -179.94400 31877 ft 508 kts 65°
2026-05-04 12:50 -6.66168 -179.87860 31881 ft 508 kts 65°
2026-05-04 12:51 -6.63398 -179.81321 31880 ft 508 kts 65°
2026-05-04 12:51 -6.60626 -179.74781 31881 ft 509 kts 65°
2026-05-04 12:52 -6.57852 -179.68237 31880 ft 509 kts 65°
2026-05-04 12:52 -6.55076 -179.61692 31879 ft 509 kts 65°
2026-05-04 12:53 -6.52298 -179.55145 31878 ft 509 kts 65°
2026-05-04 12:53 -6.49519 -179.48599 31876 ft 509 kts 65°
2026-05-04 12:54 -6.46738 -179.42052 31878 ft 509 kts 65°
2026-05-04 12:54 -6.43959 -179.35510 31877 ft 509 kts 65°
2026-05-04 12:55 -6.41200 -179.29019 31876 ft 508 kts 65°
2026-05-04 12:55 -6.38426 -179.22494 31874 ft 507 kts 65°
2026-05-04 12:56 -6.35653 -179.15975 31873 ft 507 kts 65°
2026-05-04 12:56 -6.32881 -179.09460 31874 ft 507 kts 65°
2026-05-04 12:57 -6.30109 -179.02951 31872 ft 507 kts 65°
2026-05-04 12:57 -6.27368 -178.96514 31871 ft 507 kts 65°
2026-05-04 12:58 -6.24594 -178.90004 31872 ft 507 kts 65°
2026-05-04 12:58 -6.21819 -178.83492 31876 ft 507 kts 65°
2026-05-04 12:59 -6.19040 -178.76976 31872 ft 508 kts 65°
2026-05-04 12:59 -6.16258 -178.70454 31872 ft 508 kts 65°
2026-05-04 13:00 -6.13473 -178.63928 31871 ft 508 kts 65°
2026-05-04 13:00 -6.10687 -178.57399 31875 ft 508 kts 65°
2026-05-04 13:01 -6.07898 -178.50871 31867 ft 508 kts 65°
2026-05-04 13:01 -6.05111 -178.44347 31871 ft 508 kts 65°
2026-05-04 13:02 -6.02324 -178.37826 31873 ft 508 kts 65°
2026-05-04 13:02 -6.00007 -178.32406 31875 ft 508 kts 65°
2026-05-04 13:03 -5.97224 -178.25899 31874 ft 508 kts 65°
2026-05-04 13:03 -5.94438 -178.19385 31873 ft 508 kts 65°
2026-05-04 13:04 -5.91649 -178.12870 31876 ft 507 kts 65°
2026-05-04 13:04 -5.88861 -178.06359 31871 ft 508 kts 65°
2026-05-04 13:05 -5.86091 -177.99891 31874 ft 508 kts 65°
2026-05-04 13:05 -5.83313 -177.93409 31870 ft 508 kts 65°
2026-05-04 13:06 -5.80518 -177.86887 31870 ft 508 kts 65°
2026-05-04 13:06 -5.77721 -177.80364 31876 ft 509 kts 65°
2026-05-04 13:07 -5.74922 -177.73839 31874 ft 509 kts 65°
2026-05-04 13:07 -5.72121 -177.67311 31871 ft 509 kts 65°
2026-05-04 13:08 -5.69319 -177.60785 31875 ft 509 kts 65°
2026-05-04 13:08 -5.66515 -177.54253 31870 ft 509 kts 65°
2026-05-04 13:09 -5.63728 -177.47765 31871 ft 509 kts 65°
2026-05-04 13:09 -5.60902 -177.41190 31871 ft 509 kts 65°
2026-05-04 13:10 -5.58115 -177.34705 31870 ft 509 kts 65°
2026-05-04 13:10 -5.55307 -177.28175 31870 ft 509 kts 65°
2026-05-04 13:11 -5.52498 -177.21647 31872 ft 510 kts 65°
2026-05-04 13:11 -5.49688 -177.15117 31871 ft 510 kts 65°
2026-05-04 13:12 -5.46877 -177.08585 31876 ft 510 kts 65°
2026-05-04 13:12 -5.44066 -177.02057 31873 ft 510 kts 65°
2026-05-04 13:13 -5.41287 -176.95607 31875 ft 510 kts 65°
2026-05-04 13:13 -5.38476 -176.89082 31874 ft 510 kts 66°
2026-05-04 13:14 -5.35663 -176.82556 31869 ft 509 kts 66°
2026-05-04 13:14 -5.32849 -176.76031 31873 ft 509 kts 66°
2026-05-04 13:15 -5.30035 -176.69507 31871 ft 509 kts 66°
2026-05-04 13:15 -5.27221 -176.62986 31875 ft 509 kts 66°
2026-05-04 13:16 -5.24426 -176.56509 31876 ft 509 kts 66°
2026-05-04 13:16 -5.21611 -176.49990 31873 ft 509 kts 66°
2026-05-04 13:17 -5.18774 -176.43423 31875 ft 510 kts 66°
2026-05-04 13:17 -5.15974 -176.36941 31874 ft 510 kts 66°
2026-05-04 13:18 -5.13154 -176.30415 31877 ft 510 kts 66°
2026-05-04 13:18 -5.10333 -176.23889 31877 ft 510 kts 66°
2026-05-04 13:19 -5.07512 -176.17366 31880 ft 510 kts 66°
2026-05-04 13:19 -5.04689 -176.10840 31873 ft 510 kts 66°
2026-05-04 13:20 -5.01866 -176.04314 31876 ft 510 kts 66°
2026-05-04 13:20 -4.99060 -175.97890 31871 ft 510 kts 64°
2026-05-04 13:21 -4.95936 -175.91507 31874 ft 509 kts 62°
2026-05-04 13:21 -4.92715 -175.85179 31875 ft 509 kts 62°
2026-05-04 13:22 -4.89523 -175.78835 31873 ft 510 kts 63°
2026-05-04 13:22 -4.86386 -175.72518 31874 ft 509 kts 63°
2026-05-04 13:23 -4.83238 -175.66152 31875 ft 509 kts 63°
2026-05-04 13:23 -4.80090 -175.59788 31873 ft 509 kts 63°
2026-05-04 13:24 -4.76938 -175.53426 31872 ft 509 kts 63°
2026-05-04 13:24 -4.73786 -175.47066 31871 ft 509 kts 63°
2026-05-04 13:25 -4.69056 -175.37527 31873 ft 510 kts 63°
2026-05-04 13:25 -4.65899 -175.31162 31875 ft 510 kts 63°
2026-05-04 13:26 -4.62740 -175.24794 31876 ft 510 kts 63°
2026-05-04 13:26 -4.59578 -175.18422 31877 ft 510 kts 63°
2026-05-04 13:27 -4.56415 -175.12049 31876 ft 511 kts 63°
2026-05-04 13:27 -4.53252 -175.05678 31878 ft 511 kts 63°
2026-05-04 13:28 -4.50126 -174.99384 31874 ft 511 kts 63°
2026-05-04 13:28 -4.46960 -174.93011 31876 ft 511 kts 63°
2026-05-04 13:29 -4.43790 -174.86631 31873 ft 511 kts 63°
2026-05-04 13:29 -4.40620 -174.80255 31875 ft 511 kts 63°
2026-05-04 13:30 -4.37450 -174.73877 31876 ft 511 kts 63°
2026-05-04 13:30 -4.34301 -174.67544 31880 ft 512 kts 63°
2026-05-04 13:31 -4.31114 -174.61138 32126 ft 514 kts 63°
2026-05-04 13:31 -4.29522 -174.57937 32352 ft 512 kts 63°
2026-05-04 13:31 -4.27933 -174.54745 32562 ft 511 kts 63°
2026-05-04 13:32 -4.26347 -174.51556 32742 ft 511 kts 63°
2026-05-04 13:32 -4.24760 -174.48368 32884 ft 511 kts 63°
2026-05-04 13:32 -4.23174 -174.45182 33048 ft 511 kts 63°
2026-05-04 13:32 -4.21587 -174.41994 33216 ft 511 kts 63°
2026-05-04 13:33 -4.20002 -174.38810 33389 ft 511 kts 63°
2026-05-04 13:33 -4.18418 -174.35630 33549 ft 510 kts 63°
2026-05-04 13:33 -4.16834 -174.32448 33703 ft 510 kts 63°
2026-05-04 13:33 -4.15250 -174.29269 33812 ft 510 kts 63°
2026-05-04 13:34 -4.12079 -174.22903 33871 ft 511 kts 63°
2026-05-04 13:34 -4.08909 -174.16540 33889 ft 510 kts 63°
2026-05-04 13:35 -4.04153 -174.06999 33870 ft 510 kts 63°
2026-05-04 13:36 -4.00983 -174.00640 33886 ft 510 kts 63°
2026-05-04 13:36 -3.97860 -173.94378 33886 ft 510 kts 63°
2026-05-04 13:37 -3.94691 -173.88024 33870 ft 510 kts 63°
2026-05-04 13:37 -3.91523 -173.81674 33871 ft 510 kts 63°
2026-05-04 13:38 -3.88355 -173.75326 33871 ft 510 kts 63°
2026-05-04 13:38 -3.85188 -173.68980 33887 ft 509 kts 63°
2026-05-04 13:39 -3.82019 -173.62632 33884 ft 509 kts 63°
2026-05-04 13:39 -3.78850 -173.56285 33870 ft 509 kts 63°
2026-05-04 13:40 -3.75703 -173.49986 33870 ft 509 kts 64°
2026-05-04 13:40 -3.72538 -173.43651 33885 ft 509 kts 64°
2026-05-04 13:41 -3.69374 -173.37317 33886 ft 508 kts 64°
2026-05-04 13:41 -3.66211 -173.30988 33871 ft 508 kts 64°
2026-05-04 13:42 -3.61466 -173.21496 33886 ft 508 kts 64°
2026-05-04 13:42 -3.58304 -173.15174 33874 ft 508 kts 64°
2026-05-04 13:43 -3.55142 -173.08851 33872 ft 508 kts 64°
2026-05-04 13:43 -3.51981 -173.02532 33873 ft 508 kts 64°
2026-05-04 13:44 -3.48859 -172.96293 33887 ft 507 kts 64°
2026-05-04 13:44 -3.45699 -172.89977 33886 ft 507 kts 64°
2026-05-04 13:45 -3.42537 -172.83660 33872 ft 508 kts 64°
2026-05-04 13:45 -3.39375 -172.77345 33872 ft 508 kts 64°
2026-05-04 13:46 -3.36212 -172.71027 33884 ft 508 kts 64°
2026-05-04 13:46 -3.33048 -172.64711 33869 ft 508 kts 64°
2026-05-04 13:47 -3.29905 -172.58437 33869 ft 508 kts 64°
2026-05-04 13:47 -3.26738 -172.52116 33871 ft 508 kts 64°
2026-05-04 13:48 -3.23570 -172.45794 33871 ft 508 kts 64°
2026-05-04 13:48 -3.20403 -172.39475 33870 ft 508 kts 64°
2026-05-04 13:49 -3.17232 -172.33150 33884 ft 509 kts 64°
2026-05-04 13:49 -3.14059 -172.26821 33866 ft 509 kts 64°
2026-05-04 13:50 -3.10883 -172.20489 33868 ft 509 kts 64°
2026-05-04 13:50 -3.07706 -172.14154 33886 ft 509 kts 64°
2026-05-04 13:51 -3.04526 -172.07816 33869 ft 510 kts 64°
2026-05-04 13:51 -3.01346 -172.01477 33866 ft 510 kts 64°